www.pogodaiklimat.ru
Время
(UTC), дата
10 20.02
11 20.02
12 20.02
14 20.02
13 20.02
15 20.02
16 20.02
17 20.02
18 20.02
20 20.02
19 20.02
21 20.02
22 20.02
23 20.02
00 21.02
02 21.02
01 21.02
03 21.02
04 21.02
05 21.02
06 21.02
08 21.02
07 21.02
09 21.02
10 21.02
11 21.02
12 21.02
14 21.02
13 21.02
15 21.02
16 21.02
17 21.02
18 21.02
20 21.02
19 21.02
21 21.02
22 21.02
23 21.02
00 22.02
02 22.02
01 22.02
03 22.02
04 22.02
05 22.02
06 22.02
08 22.02
07 22.02
09 22.02
10 22.02
11 22.02
12 22.02
14 22.02
13 22.02
15 22.02
16 22.02
17 22.02
18 22.02
20 22.02
19 22.02
21 22.02
22 22.02
23 22.02
00 23.02
02 23.02
01 23.02
03 23.02
04 23.02
05 23.02
06 23.02
08 23.02
07 23.02
09 23.02
10 23.02
11 23.02
12 23.02
14 23.02
13 23.02
15 23.02
16 23.02
17 23.02
18 23.02
20 23.02
19 23.02
21 23.02
22 23.02
23 23.02
00 24.02
02 24.02
01 24.02
03 24.02
04 24.02
05 24.02
06 24.02
08 24.02
07 24.02
09 24.02
10 24.02
11 24.02
12 24.02
14 24.02
13 24.02
15 24.02
16 24.02
17 24.02
18 24.02
20 24.02
19 24.02
21 24.02
22 24.02
23 24.02
00 25.02
02 25.02
01 25.02
03 25.02
04 25.02
05 25.02
06 25.02
08 25.02
07 25.02
09 25.02
10 25.02
11 25.02
12 25.02
14 25.02
13 25.02
15 25.02
16 25.02
17 25.02
18 25.02
20 25.02
19 25.02
21 25.02
22 25.02
23 25.02
00 26.02
02 26.02
01 26.02
03 26.02
04 26.02
05 26.02
06 26.02
08 26.02
07 26.02
09 26.02
10 26.02
11 26.02
12 26.02
14 26.02
13 26.02
15 26.02
16 26.02
17 26.02
18 26.02
20 26.02
19 26.02
21 26.02
22 26.02
23 26.02
00 27.02
02 27.02
01 27.02
03 27.02
04 27.02
05 27.02
06 27.02
08 27.02
07 27.02
09 27.02
10 27.02
11 27.02
Ветер
(напр.,м/с)
Видим. Явления Облачность Т
(С)
Тd
(С)
f
(%)
Тe
(С)
Тes
(С)
Комфортность P
(гПа)
Po
(гПа)
Тmin
(С)
Tmax
(С)
R
(мм)
R24
(мм)
S
(см)
ЮЗ 6 9000 м слаб. дождь н/о +3.9 +2.5 91 -2 -2 по сезону 995.3 988.3
З 7 25 км в посл. час дождь н/о +4.4 +2.2 86 -1 -1 тепло 995.9 988.9
З 8
{13}
27 км ливневой дождь н/о +3.3 +2.0 91 -3 -3 холодно 997.3 990.3 4
ЮЗ 7
{13}
22 км в посл. час дождь н/о +4.5 +1.8 83 -1 -1 по сезону 997.8 990.8
З 10-19
{19}
1300 м сильные жидкие осадки н/о +2.5 -0.5 81 -5 -5 по сезону 998.3 991.3
З 6
{14}
40 км в посл. час дождь н/о +3.1 +1.9 92 -3 -3 холодно 998.9 991.9
З 8
{13}
20 км в посл. час дождь н/о +4.5 +0.6 76 -1 -1 по сезону 999.3 992.4
З 10
{16}
40 км в посл. час дождь н/о +3.5 +0.5 81 -4 -4 по сезону 1000.5 993.5
З 6
{16}
45 км в посл. час дождь н/о +2.4 +0.3 86 -4 -4 холодно 1001.7 994.7 +8.2 5
З 7 1000 м ливневой снег н/о +1.3 +0.4 94 -5 -5 прохладно 1004.2 997.1
ЮЗ 7
{13}
35 км в посл. час дождь н/о +2.5 +0.7 88 -4 -4 по сезону 1002.9 995.9
ЮЗ 7
{14}
12 км слаб. ливневой дождь н/о +3.6 +1.7 87 -2 -2 прохладно 1004.6 997.6
З 8
{15}
17 км в посл. час дождь н/о +4.0 +1.5 84 -2 -2 по сезону 1005.2 998.2
З 8
{14}
15 км в посл. час дождь н/о +3.9 +1.8 86 -2 -2 тепло 1005.9 998.9
З 9
{16}
7000 м слаб. ливневой дождь н/о +4.3 +2.4 87 -2 -2 по сезону 1006.0 999.0 2
ЮЗ 9-14
{15}
14 км н/о +5.3 +2.4 82 -1 -1 по сезону 1006.5 999.5
ЮЗ 9-15
{15}
14 км в посл. час дождь н/о +4.9 +2.6 85 -1 -1 тепло 1006.3 999.3
ЮЗ 11-17
{17}
14 км н/о +5.4 +2.2 80 -1 -1 по сезону 1006.0 999.0
ЮЗ 8-16
{19}
14 км слаб. ливневой дождь н/о +5.2 +2.5 83 -1 -1 по сезону 1005.3 998.3
ЮЗ 11-17
{19}
28 км слаб. морось с дождем н/о +5.6 +2.8 82 -1 -1 тепло 1003.5 996.5
ЮЗ 11-20
{20}
11 км слаб. дождь н/о +6.1 +3.6 84 -0 -0 по сезону 1002.2 995.2 +0.9 3 7.8
ЮЗ 12-20
{25}
13 км дождь н/о +6.0 +4.0 87 -1 -1 тепло 1001.7 994.7
ЮЗ 12-17
{22}
13 км слаб. дождь н/о +5.8 +3.6 86 -1 -1 тепло 1001.6 994.7
ЮЗ 12-20
{21}
4500 м дождь н/о +6.4 +4.6 88 0 0 по сезону 1001.3 994.3
ЮЗ 12-17
{21}
11 км дождь н/о +7.5 +5.5 87 +2 +2 тепло 1001.5 994.6
ЮЗ 10-17
{17}
11 км дождь н/о +8.2 +6.3 88 +3 +3 тепло 1001.6 994.7
ЮЗ 10
{17}
10 км дождь н/о +8.6 +6.7 88 +3 +3 по сезону 1001.7 994.8 5
ЮЗ 10-17
{17}
13 км слаб. дождь н/о +9.7 +7.8 88 +5 +5 тепло 1001.0 994.1
ЮЗ 9
{16}
10 км слаб. дождь н/о +8.9 +7.2 89 +4 +4 тепло 1001.6 994.7
ЮЗ 10-15
{17}
13 км в посл. час дождь н/о +10.4 +7.8 84 +6 +6 тепло 1000.7 993.8
ЮЗ 10-15
{17}
11 км н/о +10.2 +8.0 86 +6 +6 тепло 1000.2 993.4
ЮЗ 9-15
{16}
8000 м слаб. морось с дождем н/о +10.0 +8.0 87 +6 +6 тепло 999.8 993.0
ЮЗ 10-16
{16}
10 км в посл. час дождь н/о +10.0 +7.9 87 +5 +5 тепло 998.9 992.1 +10.6 6
ЮЗ 11-18
{18}
5000 м дождь н/о +9.8 +8.1 89 +5 +5 тепло 996.9 990.1
ЮЗ 11-17
{17}
7000 м слаб. ливневой дождь н/о +9.8 +7.8 87 +5 +5 тепло 997.9 991.1
ЮЗ 10-17
{18}
9000 м слаб. дождь н/о +10.0 +8.4 90 +5 +5 тепло 995.6 988.8
ЮЗ 10-15
{18}
4100 м слаб. дождь н/о +9.9 +8.5 91 +5 +5 тепло 994.5 987.7
ЮЗ 10-15
{18}
5000 м слаб. дождь н/о +9.7 +8.5 92 +5 +5 тепло 993.1 986.3
ЮЗ 11-17
{17}
50 км в посл. час дождь н/о +10.4 +8.2 86 +6 +6 тепло 991.9 985.1 1
З 13-21
{23}
21 км в посл. час дождь н/о +8.2 +4.0 75 +2 +2 тепло 993.2 986.4
З 13-21
{25}
22 км сильн. ливневой дождь н/о +8.8 +5.7 81 +3 +3 тепло 992.1 985.3
ЮЗ 11-16
{16}
13 км н/о +8.0 +3.9 75 +3 +3 по сезону 993.2 986.4
З 11-16
{21}
26 км в посл. час дождь н/о +6.9 +2.2 72 +1 +1 тепло 994.1 987.2
З 8
{20}
11 км слаб. ливневой дождь н/о +6.3 +2.3 76 +1 +1 тепло 995.1 988.2
З 10
{21}
19 км слаб. дождь н/о +4.6 +2.4 86 -2 -2 по сезону 995.5 988.6 +3.5 5 10.8
З 9-14
{14}
2800 м ливневой дождь н/о +3.8 +1.7 86 -3 -3 по сезону 997.5 990.5
З 11-18
{21}
5000 м ливневой дождь н/о +2.6 +1.3 91 -5 -5 тепло 997.1 990.1
З 12-18
{23}
35 км слаб. ливневой дождь н/о +2.9 +0.8 86 -5 -5 холодно 998.6 991.5
ЮЗ 8-13
{18}
25 км в посл. час дождь н/о +3.8 +1.2 83 -3 -3 по сезону 999.1 992.1
З 10
{17}
7000 м ливневой дождь н/о +4.0 +1.5 84 -3 -3 тепло 999.9 992.9
З 12-19
{23}
18 км в посл. час дождь н/о +4.0 +1.4 83 -3 -3 холодно 1000.7 993.7 4
З 14-23
{23}
16 км в посл. час дождь н/о +4.5 +0.2 74 -3 -3 по сезону 1002.2 995.2
З 11-20
{22}
29 км в посл. час дождь н/о +3.6 +0.6 81 -4 -4 по сезону 1001.4 994.4
З 10-15
{23}
11 км в посл. час дождь н/о +4.2 +0.5 77 -3 -3 прохладно 1002.9 995.9
З 12 10 км слаб. ливневой дождь н/о +3.3 +0.7 83 -4 -4 по сезону 1003.6 996.6
З 10-15
{17}
12 км в посл. час дождь н/о +4.1 +0.1 75 -2 -2 тепло 1004.3 997.3
З 10
{19}
14 км в посл. час дождь н/о +3.7 -1.0 71 -3 -3 прохладно 1005.0 998.0 +5.4 5
ЮЗ 10
{16}
19 км в посл. час дождь н/о +3.4 +0.1 79 -4 -4 по сезону 1006.2 999.2
ЮЗ 10
{21}
15 км в посл. час дождь н/о +3.5 +0.3 80 -3 -3 тепло 1005.5 998.5
ЮЗ 10-15
{16}
17 км н/о +3.9 0.0 76 -3 -3 прохладно 1006.5 999.5
З 9-14
{16}
21 км н/о +4.0 -0.1 75 -2 -2 по сезону 1006.5 999.4
ЮЗ 7
{13}
27 км в посл. час дождь н/о +2.4 +1.4 93 -4 -4 тепло 1006.7 999.6
ЮЗ 8
{13}
7000 м ливневой дождь н/о +2.7 +1.0 89 -4 -4 прохладно 1006.6 999.5 2
З 7
{16}
10 км слаб. дождь н/о +3.0 +1.1 87 -3 -3 по сезону 1005.6 998.5
ЮЗ 6 30 км в посл. час дождь н/о +2.8 +1.2 89 -3 -3 тепло 1006.1 999.0
ЮЗ 6 10 км слаб. дождь н/о +2.7 +1.4 91 -3 -3 по сезону 1004.5 997.5
ЮЗ 5 16 км слаб. дождь н/о +2.5 +1.3 92 -3 -3 по сезону 1003.8 996.8
ЮЗ 6 14 км слаб. дождь н/о +2.5 +1.3 92 -3 -3 тепло 1003.1 996.1
ЮЗ 5 10 км слаб. ливневой дождь н/о +2.5 +1.3 92 -3 -3 по сезону 1003.0 995.9 +2.2 2 7.4
ЮЗ 6 26 км в посл. час дождь н/о +2.7 +0.9 88 -3 -3 по сезону 1003.7 996.7
ЮЗ 4 40 км слаб. дождь н/о +2.2 +1.3 94 -3 -3 тепло 1003.2 996.1
З 7 50 км в посл. час дождь н/о +3.0 +1.1 87 -3 -3 прохладно 1004.3 997.2
ЮЗ 6
{13}
35 км в посл. час дождь н/о +2.4 +1.2 92 -4 -4 по сезону 1005.0 997.9
З 10
{15}
21 км в посл. час дождь н/о +3.9 +0.7 80 -3 -3 тепло 1005.8 998.8
З 11-17
{17}
30 км н/о +5.0 +0.8 74 -2 -2 прохладно 1007.1 1000.1 0.4
З 8
{14}
13 км н/о +5.6 +2.1 78 0 0 по сезону 1009.8 1002.7
З 9
{17}
40 км н/о +5.2 +1.3 76 -1 -1 тепло 1008.4 1001.4
З 8-13
{15}
22 км н/о +6.4 +1.6 71 +1 +1 по сезону 1010.9 1003.9
З 7
{14}
28 км н/о +6.5 +1.3 69 +2 +2 тепло 1012.3 1005.3
З 9-14
{14}
30 км н/о +6.3 +1.2 70 +1 +1 тепло 1013.4 1006.4
З 6 19 км н/о +4.9 +1.7 80 -0 -0 по сезону 1015.0 1007.9 +6.9 0.4
ЮЗ 4 21 км н/о +4.0 +1.7 85 -1 -1 по сезону 1017.0 1009.9
ЮЗ 5 19 км н/о +4.2 +1.8 84 -1 -1 тепло 1016.4 1009.3
ЮЗ 3 21 км н/о +3.5 +1.7 88 -1 -1 по сезону 1017.5 1010.4
ЮЗ 3 21 км н/о +3.4 +1.7 89 -1 -1 по сезону 1017.9 1010.8
Ю 2 15 км н/о +3.2 +2.3 94 +1 +1 тепло 1017.6 1010.5
ЮЗ 3 27 км н/о +3.7 +2.3 91 -0 -0 по сезону 1017.3 1010.2
Ю 2 23 км н/о +4.1 +2.2 87 +1 +1 тепло 1015.1 1008.0
ЮВ 1 23 км н/о +3.3 +1.8 90 +3 +3 тепло 1016.7 1009.6
ЮВ 2 26 км н/о +3.4 +1.4 87 +1 +1 по сезону 1014.1 1007.0
В 1 29 км н/о +2.7 +1.4 91 +1 +1 тепло 1012.2 1005.1
В 3 30 км н/о +3.3 +1.7 89 -0 -0 тепло 1010.0 1002.9
В 4 9000 м слаб. ливневой дождь н/о +2.8 +1.7 92 -2 -2 по сезону 1008.3 1001.2 +2.6 0.2 0.6
В 5 14 км слаб. дождь н/о +1.8 +1.0 94 -4 -4 по сезону 1003.9 996.8
В 4 10 км слаб. дождь н/о +2.2 +1.3 94 -3 -3 тепло 1006.3 999.2
В 5 5000 м ледяной дождь н/о +1.6 +0.8 94 -4 -4 прохладно 1001.3 994.3
В 5 3800 м снег н/о +1.2 +0.6 96 -5 -5 по сезону 999.0 991.9
В 5 7000 м слаб. снег н/о +1.4 +1.1 98 -4 -4 тепло 997.2 990.2
СВ 4 6000 м дождь н/о +1.6 +1.2 97 -3 -3 холодно 995.9 988.8 5
СВ 3 3800 м в посл. час дождь н/о +2.9 +2.3 96 -1 -1 по сезону 992.9 986.0
В 4 5000 м слаб. морось н/о +2.4 +1.9 96 -2 -2 по сезону 994.4 987.5
С 2 3000 м морось н/о +2.7 +2.2 97 -0 -0 по сезону 992.4 985.5
З 4 5000 м слаб. дождь н/о +2.8 +2.5 98 -2 -2 по сезону 992.6 985.6
З 5 3200 м слаб. морось н/о +2.6 +2.2 97 -3 -3 по сезону 993.3 986.3
З 6 16 км слаб. дождь н/о +2.3 +1.7 96 -4 -4 прохладно 994.3 987.3 +3.0 6
З 6 45 км в посл. час дождь н/о +2.6 +1.3 91 -3 -3 по сезону 995.6 988.6
З 5 19 км слаб. дождь н/о +2.6 +1.8 94 -3 -3 тепло 995.2 988.2
З 7 50 км н/о +2.6 +1.1 90 -4 -4 прохладно 995.6 988.6
З 6 50 км н/о +2.2 +0.5 89 -4 -4 по сезону 995.7 988.7
З 5 50 км н/о +2.0 +0.4 89 -3 -3 тепло 996.1 989.1
З 5 50 км н/о +1.8 +0.1 88 -4 -4 прохладно 996.2 989.1 0.2
ЮЗ 3 50 км н/о +1.8 +0.2 89 -3 -3 по сезону 995.7 988.6
З 4 50 км н/о +1.9 +0.2 88 -3 -3 тепло 996.1 989.0
ЮЗ 3 45 км н/о +1.9 +0.5 90 -2 -2 по сезону 995.2 988.2
З 4 50 км в посл. час дождь н/о +2.4 +1.4 93 -3 -3 по сезону 994.6 987.6
ЮЗ 4 50 км н/о +2.5 +1.0 90 -2 -2 тепло 994.2 987.2
З 4 50 км н/о +2.0 +0.7 91 -3 -3 по сезону 993.8 986.8 +1.7 0.2 6.6
З 4 40 км н/о +1.8 +0.7 92 -3 -3 по сезону 993.1 986.1
З 5 50 км н/о +2.0 +0.8 92 -4 -4 тепло 993.4 986.4
З 4 50 км н/о +2.8 +1.2 89 -2 -2 прохладно 992.7 985.7
З 5 45 км н/о +3.2 +1.4 88 -2 -2 по сезону 992.2 985.3
З 5 35 км н/о +3.8 +2.2 89 -1 -1 тепло 992.1 985.2
З 5 50 км н/о +4.4 +1.5 81 -1 -1 прохладно 991.6 984.7
З 7 50 км в посл. час дождь н/о +4.6 +0.6 75 -1 -1 по сезону 990.7 983.8
ЮЗ 6 40 км н/о +5.2 +1.6 78 0 0 тепло 991.0 984.1
З 6 50 км н/о +3.9 +1.5 84 -1 -1 по сезону 990.4 983.4
З 5 50 км н/о +3.7 +1.0 83 -1 -1 по сезону 990.0 983.1
ЮЗ 5 50 км н/о +3.2 +0.9 85 -2 -2 тепло 989.7 982.7
З 5 50 км слаб. ливневой дождь н/о +3.0 +1.0 87 -2 -2 прохладно 990.1 983.2 +6.3 0.0
ЮЗ 3 50 км н/о +1.6 +0.3 91 -3 -3 по сезону 990.2 983.2
ЮЗ 2 50 км в посл. час дождь н/о +1.8 +0.4 90 -2 -2 тепло 990.2 983.3
З 3 30 км н/о +1.2 +0.1 92 -3 -3 прохладно 990.3 983.3
ЮЗ 4 20 км н/о +1.1 0.0 92 -4 -4 по сезону 990.3 983.3
ЮЗ 4 25 км н/о +1.0 0.0 93 -4 -4 тепло 991.1 984.1
З 4 29 км н/о +1.0 0.0 93 -4 -4 прохладно 991.6 984.6 0.0
ЮЗ 4 50 км н/о +1.1 0.0 92 -4 -4 по сезону 993.1 986.1
ЮЗ 3 30 км н/о +1.0 0.0 93 -4 -4 тепло 992.6 985.6
ЮЗ 4 45 км н/о +0.9 -0.2 92 -5 -5 прохладно 993.5 986.5
ЮЗ 4 45 км н/о +0.8 -0.1 94 -4 -4 по сезону 994.1 987.1
ЮЗ 4 50 км н/о +0.5 -0.4 94 -5 -5 тепло 994.7 987.7
ЮЗ 5 45 км н/о +0.7 -0.2 94 -5 -5 прохладно 995.4 988.4 +0.3 0.0
ЮЗ 5 50 км н/о +1.4 -0.1 90 -5 -5 по сезону 997.0 989.9
З 5 50 км н/о +0.7 -0.4 92 -5 -5 тепло 996.4 989.3
З 6 50 км н/о +2.2 +0.5 89 -4 -4 прохладно 997.9 990.9
З 6 50 км н/о +2.8 +0.7 86 -3 -3 по сезону 998.0 991.0
З 7 30 км н/о +4.4 -0.7 69 -1 -1 тепло 999.0 992.0
З 8 50 км н/о +4.9 -1.0 66 -1 -1 прохладно 999.2 992.3 0.2
З 8
{15}
40 км н/о +4.7 -3.5 55 -1 -1 по сезону 999.7 992.7
З 9
{13}
35 км н/о +4.6 -1.8 63 -1 -1 тепло 999.7 992.7
З 8-13
{13}
30 км н/о +5.8 -2.6 55 +1 +1 по сезону 999.8 992.9
З 6 40 км н/о +4.3 -3.1 59 -1 -1 по сезону 1000.1 993.2
ЮЗ 5 35 км н/о +4.2 -1.9 64 -0 -0 тепло 1000.0 993.0
ЮЗ 4 50 км н/о +2.9 -1.1 75 -1 -1 по сезону 1000.2 993.2 +5.9 0.2
ЮЗ 4 50 км н/о +1.9 -0.1 87 -3 -3 по сезону 999.4 992.3
ЮЗ 2 50 км в посл. час дождь н/о +1.7 +0.2 90 -2 -2 тепло 1000.2 993.1
ЮЗ 5 50 км н/о +2.0 +0.1 87 -4 -4 прохладно 998.3 991.2
ЮЗ 4 50 км н/о +2.2 +0.3 87 -3 -3 по сезону 997.8 990.8
ЮЗ 5 50 км в посл. час дождь н/о +1.3 +0.6 95 -4 -4 тепло 997.2 990.1
ЮЗ 6 50 км н/о +1.7 +0.1 89 -5 -5 прохладно 996.4 989.4 0.2
ЮЗ 5 30 км слаб. дождь н/о +1.4 +0.5 94 -4 -4 по сезону 995.6 988.6
ЮЗ 6 50 км н/о +1.7 +0.3 90 -5 -5 тепло 995.9 988.9
ЮЗ 5 22 км слаб. ливневой дождь н/о +1.1 +0.2 94 -5 -5 прохладно 995.3 988.2
З 5 50 км в посл. час дождь н/о +1.0 -0.3 91 -5 -5 по сезону 995.0 988.0
З 6 50 км н/о +0.8 -0.5 91 -6 -6 тепло 995.0 987.9
З 5 50 км н/о +0.5 -0.9 90 -6 -6 прохладно 995.4 988.3 +0.5 0.2 0.4
З 6 50 км н/о +0.5 -1.2 88 -6 -6 по сезону 996.1 989.1
ЮЗ 5 50 км н/о +0.3 -1.3 89 -6 -6 тепло 995.8 988.8
ЮЗ 6 45 км н/о +1.5 -0.9 84 -5 -5 прохладно 996.7 989.7
З 6 40 км н/о +2.4 -0.6 81 -4 -4 по сезону 997.2 990.2
З 7 45 км н/о +3.3 -0.2 78 -3 -3 тепло 997.7 990.7
Местоположение метеостанции Эдинбург (Великобритания): широта 55.93 долгота -3.35 высота над уровнем моря 57 м.
В архиве по умолчанию представлена погода в Эдинбурге за последнюю неделю. Архивные данные за месяц целиком и за предыдущие месяцы, начиная с января 2011 года, Вы можете получить, выбрав интересующий диапазон дат из раскрывающегося списка и нажав кнопку "Найти!".
*Определитесь, кто Вы:
Внимание! Время в таблицах - всемирное. Для получения местного времени необходимо прибавить поправку, которая равна 0 ч.
Смотрите также архив погоды в соседних городах и на ближайших метеорологических станциях:
Партнеры нашего сайта:
Ирригатор носовой rinomed r1
ирригатор носовой rinomed r1
gipermed.ru

     
Пояснения к столбцам:
  • Ветер - указаны скорость ветра в м/с - средняя за 10 мин, порывы в срок и между сроками (в фигурных скобках) и направление, откуда дует ветер: С - северный,
  • СВ - северо-восточный, В - восточный, ЮВ - юго-восточный, Ю - южный, ЮЗ - юго-западный, З - западный, СЗ - северо-западный.
  • Видимость - горизонтальная дальность видимости в метрах или километрах. При видимости от 1 до 10 км при отсутствии осадков обычно наблюдается дымка, при ухудшении видимости до 1 км и менее - туман. В сухую погоду видимость может ухудшаться дымом, пылью или мглою.
  • Явления - указаны атмосферные явления, наблюдавшиеся в срок или в последний час перед сроком; фигурными скобками обозначены явления, наблюдавшиеся между сроками (за 1-3 часа до срока); квадратными скобками обозначены град или гололедные отложения с указанием их диаметра в мм.
  • Облачность - указаны через наклонную черту общая и нижняя облачность в баллах и высота нижней границы облаков в метрах; квадратными скобками обозначены формы облаков: Ci - перистые, Cs - перисто-слоистые, Cc - перисто-кучевые, Ac - высококучевые, As - высокослоистые, Sc - слоисто-кучевые, Ns - слоисто-дождевые, Cu - кучевые, Cb - кучево-дождевые. Подробнее классификацию облаков см. в Атласе облаков (PDF).
  • T - Температура воздуха - температура, измеренная на высоте 2 м над землей.
  • Td - Температура точки росы - температура, при понижении до которой содержащийся в воздухе водяной пар достигнет насыщения.
  • f - Относительная влажность воздуха - влажноcть воздуха, измеренная на высоте 2 м над землей.
  • Te - Эффективная температура - температура, которую ощущает одетый по сезону человек в тени. Характеристика душности погоды. При расчете учитывается влияние влажности воздуха и скорости ветра на теплоощущения человека.
  • Tes - Эффективная температура на солнце - температура, которую ощущает человек, с поправкой на солнечный нагрев. Характеристика знойности погоды. Зависит от высоты солнца над горизонтом, облачности и скорости ветра. Ночью, в пасмурную погоду, а также при ветре 12 м/с и более поправка равна нулю.
  • P - Атмосферное давление - приведенное к уровню моря атмосферное давление.
  • Po - Атмосферное давление - измеренное на уровне метеостанции атмосферное давление.
  • Tmin - Минимальная температура - минимум температуры воздуха на высоте 2 м над землей.
  • Tmax - Максимальная температура - максимум температуры воздуха на высоте 2 м над землей.
  • R - Количество осадков - Количество выпавших осадков за период времени, мм. При наведении курсора мыши на число - период времени, за который выпало указанное количество осадков.
  • R24 - Количество осадков - Количество выпавших осадков за 24 часа, мм.
  • S - Снежный покров - Высота снежного покрова, см. При наведении курсора мыши на число - состояние снежного покрова и степень покрытия местности в баллах.